Regional Weather Roundup
Issued by NWS

Home | Current Version | Previous Version | Graphics & Text | Print | Product List | Glossary On
Versions: 1 2 3 4 5 6 7 8 9 10 11 12 13 14 15 16 17 18 19 20 21 22 23 24 25 26 27
000
ASUS45 KBOU 202110
RWRCO

WEATHER ROUNDUP FOR COLORADO
NATIONAL WEATHER SERVICE DENVER/BOULDER CO
200 PM MST MON NOV 20 2017

NOTE: "FAIR" INDICATES FEW OR NO CLOUDS BELOW 12000 FEET WITH NO
SIGNIFICANT WEATHER AND/OR OBSTRUCTIONS TO VISIBILITY.

COZ001>005-013-030-031-202200-
...NORTHWEST COLORADO...

CITY           SKY/WX    TMP DP  RH WIND       PRES   REMARKS
CRAIG          FAIR      41  20  43 CALM      30.08F
HAYDEN         FAIR      36  23  59 SE3       30.09F
MEEKER         FAIR      42  24  49 SE5       30.08F
RABBIT EARS PA CLOUDY    30  12  47 W12G25    30.12S WCI  21
STEAMBOAT SPGS FAIR      37  22  52 CALM      30.09R
WALDEN         FAIR      43   9  24 SW13      30.05F
$$

COZ006>008-011-202200-
...WEST CENTRAL VALLEYS...

CITY           SKY/WX    TMP DP  RH WIND       PRES   REMARKS
GRAND JUNCTION FAIR      43  18  36 CALM      30.14F
MONTROSE       FAIR      39  18  42 W5        30.18S
EAGLE          FAIR      40  18  41 CALM      30.12F
RIFLE          FAIR      38  18  44 CALM      30.15F
DELTA          FAIR      44  17  33 SW7       30.16S
NUCLA          CLOUDY    45   5  19 CALM      30.19S
$$

COZ017>023-064>068-202200-
...SOUTHWEST COLORADO...

CITY           SKY/WX    TMP DP  RH WIND       PRES   REMARKS
DURANGO        FAIR      49  12  22 SE6       30.12F
CORTEZ         FAIR      49   9  19 W8        30.15F
PAGOSA SPRINGS FAIR      48   5  17 SW5       30.14F
TELLURIDE      CLOUDY    45 -12   8 NW10G16   30.22R
WOLF CREEK PAS FAIR      32   5  32 S8        30.28F WCI  25
$$

COZ009-010-012-014-032>034-037-058>063-202200-
...CENTRAL COLORADO...

CITY           SKY/WX    TMP DP  RH WIND       PRES   REMARKS
ASPEN          FAIR      39  22  50 NW5       30.11F
BUENA VISTA    FAIR      53   8  16 W29G44    29.99S
COPPER MTN     FAIR      34   7  32 MISG      30.20R
BERTHOUD PASS  FAIR      23  12  63 NW22G37   30.16F WCI   8
COTTONWOOD PAS FAIR      46   9  21 W37G60    30.03R
GUNNISON       FAIR      32  15  49 CALM      30.18F
KREMMLING      FAIR      52   5  15 CALM      30.09F
LEADVILLE      FAIR      39   1  20 N6        30.14S
MONARCH PASS   FAIR      28   5  37 W39G47    30.28S WCI  11
SALIDA         FAIR      58  10  15 SW22G35   30.05R
SUNLIGHT       FAIR      32   1  27 SW12G28   30.22F WCI  23
WILKERSON PASS FAIR      37   5  25 MISG      30.06S
$$

COZ069>075-202200-
...SAN LUIS VALLEY/SANGRE DE CRISTO MOUNTAINS...

CITY           SKY/WX    TMP DP  RH WIND       PRES   REMARKS
ALAMOSA        FAIR      50   3  14 CALM      30.06F
DEL NORTE      FAIR      47   9  21 SE3       30.08F
LA VETA PASS   FAIR      41   3  20 SW22G30     N/A
SAGUACHE       FAIR      52  -6   9 NW24G32   30.07F
$$

COZ035-036-038>040-202200-
...NORTHERN COLORADO FRONT RANGE...

CITY           SKY/WX    TMP DP  RH WIND       PRES   REMARKS
DENVER INTL AP FAIR      68   7   9 W21       29.77S
DMNS CITY PARK   N/A     67   6   9 NE9G17    29.77S
AURORA         MOSUNNY   67  11  11 NW14      29.79R
FRONT RANGE AP MOSUNNY   70  10  10 W15G21    29.79S
ERIE MUNI ARPT FAIR      70   4   7 S8        29.80R
BOULDER MUN AP FAIR      68  14  12 N6        29.74R
CENTENNIAL     FAIR      66  14  13 NW9       29.79F
BROOMFIELD     MOSUNNY   64   7  10 W38G55    29.78R
FORT COLLINS   FAIR      67  17  14 E14       29.76R
LONGMONT       FAIR      71  10   9 CALM      29.76R
$$

COZ041-046-047-076>085-087-088-202200-
...PIKES PEAK/PALMER DIVIDE AND SOUTHERN FOOTHILLS...

CITY           SKY/WX    TMP DP  RH WIND       PRES   REMARKS
COLO. SPRINGS  FAIR      67  13  12 NW28G37   29.82F
A. F. ACADEMY    N/A    N/A N/A N/A W22       29.84R
SCHRIEVER AFB  FAIR      66  10  11 NW16G24   29.83F
CHEYENNE MTN   FAIR      58   8  13 CALM      29.81F
ELLICOTT         N/A    N/A N/A N/A SW9       29.82S
FALCON         FAIR      64   9  11 W21G26    29.87F
FORT CARSON    FAIR      67   1   7 NW7G18    29.81F
LIMON          FAIR      68   1   7 NW14      29.80F
MONUMENT HILL  FAIR      61  12  15 W13G22    29.87F
CANON CITY     FAIR      72  16  12 W23G32    29.82R
WALSENBURG     FAIR      66   7   9 W20G25    29.88F
TRINIDAD       FAIR      63  11  13 NW20      29.87F
$$

COZ042>045-048>051-090-091-202200-
...NORTHEAST COLORADO...

CITY           SKY/WX    TMP DP  RH WIND       PRES   REMARKS
GREELEY ARPT   FAIR      66  12  12 E13       29.75F
AKRON          FAIR      66   1   7 NW15      29.78S
BURLINGTON     FAIR      71  -2   5 SW14      29.75S
WRAY           NOT AVBL
YUMA           FAIR      68   5   8 NW13      29.76R
STERLING       FAIR      70  12  11 NW30G37   29.75S
HOLYOKE        FAIR      70   9   9 W17       29.73S
FORT MORGAN    FAIR      69   4   7 NW8G16    29.78S
$$

COZ086-089-092>099-202200-
...SOUTHEAST COLORADO...

CITY           SKY/WX    TMP DP  RH WIND       PRES   REMARKS
PUEBLO         FAIR      71   5   7 W14G22    29.77F
LA JUNTA       FAIR      70   5   8 W8        29.77F
LAMAR          FAIR      67  15  13 NW6       29.75F
SPRINGFIELD      N/A     69   1   7 W14G24    29.79F
$$




USA.gov is the U.S. government's official web portal to all federal, state and local government web resources and services.